Flight Track Log - Related Links

Times and Time Zones

All times are in EDT time to prevent confusion due to time zone crossing. See the ASQ5025 flight status page for this flight to view local times or setup timezone preferences in your user account.

Time Position Orientation Groundspeed Altitude Reporting Facility
EDT Latitude Longitude Course Direction KTS MPH feet Rate Location/Type
Mon 11:24:50 AM 44.3989 -73.1286 196° South 187 215 3,700  Level Boston Center
Mon 11:25:50 AM 44.3342 -73.1250 178° South 218 251 6,100 2,038 Climbing Boston Center
Mon 11:27:00 AM 44.2367 -73.1467 196° South  Level Estimated
Mon 11:30:00 AM 44.0022 -73.3258 196° South  Level FlightAware Approximate
Mon 11:30:02 AM 43.9842 -73.1325 195° South 356 410 14,300  Level Boston Center
Mon 11:31:02 AM 43.8800 -73.1544 189° South 379 436 16,300 1,850 Climbing Boston Center
Mon 11:32:02 AM 43.7756 -73.1792 190° South 387 445 18,000 1,950 Climbing Boston Center
Mon 11:33:02 AM 43.6586 -73.2033 189° South 393 452 20,200 1,850 Climbing Boston Center
Mon 11:34:00 AM 43.6861 -73.4471 195° South  Level FlightAware Approximate
Mon 11:34:02 AM 43.5503 -73.2250 188° South 393 452 21,700  Level Boston Center
Mon 11:35:00 AM 43.6045 -73.4777 195° South  Level FlightAware Approximate
Mon 11:36:00 AM 43.3865 -73.2649 190° South  Level Estimated
Mon 11:38:02 AM 43.0994 -73.3244 190° South 423 487 26,000  Level Boston Center
Mon 11:39:02 AM 42.9742 -73.3539 190° South 447 514 26,000 -567 Level Boston Center
Mon 11:41:02 AM 42.7444 -73.4042 189° South 467 537 24,300 -967 Descending Boston Center
Mon 11:42:02 AM 42.5878 -73.4356 188° South 472 543 23,100 -1,100 Descending Boston Center
Mon 11:43:00 AM 42.8035 -73.4052 190° South  Level Estimated
Mon 11:43:02 AM 42.4644 -73.4644 190° South 467 537 22,100  Level Boston Center
Mon 11:44:02 AM 42.3581 -73.4853 188° South 433 498 21,100 -1,100 Descending Boston Center
Mon 11:45:02 AM 42.2642 -73.4950 184° South 376 433 19,900 -950 Descending Boston Center
Mon 11:46:02 AM 42.1556 -73.5183 189° South 364 419 19,200 -750 Descending Boston Center
Mon 11:47:02 AM 42.0783 -73.5422 193° South 350 403 18,400 -600 Descending Boston Center
Mon 11:48:02 AM 41.9989 -73.5575 188° South 305 351 18,000 -200 Descending Boston Center
Mon 11:49:02 AM 41.9603 -73.6658 244° Southwest 267 307 18,000 -367 Level Boston Center
Mon 11:51:02 AM 41.8997 -73.8569 247° West 269 310 16,900 -700 Descending Boston Center
Mon 11:52:02 AM 41.8525 -73.7947 136° Southeast 168 193 15,900 -1,000 Descending Boston Center
Mon 11:53:02 AM 41.8119 -73.6992 120° Southeast 183 211 14,900 -950 Descending Boston Center
Mon 11:54:02 AM 41.7836 -73.6206 116° Southeast 224 258 14,000 -1,467 Descending Boston Center
Mon 11:56:02 AM 41.6481 -73.6375 185° South 238 274 10,500 -1,596 Descending Boston Center
Mon 11:57:10 AM 41.5667 -73.6833 203° Southwest 272 313 9,000 -642 Descending New York TRACON
Mon 11:59:09 AM 41.4167 -73.7667 203° Southwest 280 322 8,500 -333 Descending New York TRACON
Mon 12:00:10 PM 41.3500 -73.7833 191° South 277 319 8,000 -600 Descending New York TRACON
Mon 12:02:00 PM 41.2063 -73.6729 143° Southeast  Level FlightAware Approximate
Mon 12:03:09 PM 41.1500 -73.6333 143° Southeast 278 320 6,100  Level New York TRACON
Mon 12:05:04 PM 41.0333 -73.6667 192° South 261 300 4,100 -525 Descending New York TRACON
Mon 12:07:00 PM 40.8761 -73.7744 204° Southwest  Level FlightAware Approximate
Mon 12:07:09 PM 40.9667 -73.8333 204° Southwest 261 300 4,000  Level New York TRACON
Mon 12:08:04 PM 40.9167 -73.8833 217° Southwest 261 300 4,000  Level New York TRACON
Mon 12:10:04 PM 40.8000 -73.9667 208° Southwest 203 234 4,000  Level New York TRACON
Mon 12:11:04 PM 40.7500 -74.0000 207° Southwest 181 208 4,000  Level New York TRACON
Mon 12:13:10 PM 40.6667 -74.0667 211° Southwest 180 207 4,000  Level New York TRACON
Mon 12:14:10 PM 40.6167 -74.0833 194° South 183 211 4,000 -600 Level New York TRACON
Mon 12:15:10 PM 40.6000 -74.0500 123° Southeast 191 220 2,800 -552 Descending New York TRACON
Mon 12:17:04 PM 40.6667 -73.9667 43° Northeast 184 212 2,400 -483 Descending New York TRACON
Mon 12:18:04 PM 40.7167 -73.9333 27° Northeast 178 205 1,400 -900 Descending New York TRACON
Mon 12:19:04 PM 40.7500 -73.9000 37° Northeast 136 157 600 -800 Descending New York TRACON

Login

Don't have an account? Register now (free) for customized features, flight alerts, and more!